owner,sensor,date,latitude,longitude,air_pressure(mBar),qcFlag 
TABS,ioos:station:wmo:42047:1,2008-02-01T00:00:00Z,27.8966,-93.5973,1016.0,11111222 
TABS,ioos:station:wmo:42047:1,2008-02-01T00:30:00Z,27.8966,-93.5973,1016.51,11111222 
TABS,ioos:station:wmo:42047:1,2008-02-01T01:00:00Z,27.8966,-93.5973,1017.15,11111222 
TABS,ioos:station:wmo:42047:1,2008-02-01T01:30:00Z,27.8966,-93.5973,1018.19,11111222 
TABS,ioos:station:wmo:42047:1,2008-02-01T02:00:00Z,27.8966,-93.5973,1018.67,11111222 
TABS,ioos:station:wmo:42047:1,2008-02-01T02:30:00Z,27.8966,-93.5973,1019.25,11111222 
TABS,ioos:station:wmo:42047:1,2008-02-01T03:00:00Z,27.8966,-93.5973,1019.64,11111222 
TABS,ioos:station:wmo:42047:1,2008-02-01T03:30:00Z,27.8966,-93.5973,1020.49,11111222 
TABS,ioos:station:wmo:42047:1,2008-02-01T04:00:00Z,27.8966,-93.5973,1021.25,11111222 
TABS,ioos:station:wmo:42047:1,2008-02-01T04:30:00Z,27.8966,-93.5973,1021.68,11111222 
TABS,ioos:station:wmo:42047:1,2008-02-01T05:00:00Z,27.8966,-93.5973,1022.59,11111222 
TABS,ioos:station:wmo:42047:1,2008-02-01T05:30:00Z,27.8966,-93.5973,1022.8,11111222 
TABS,ioos:station:wmo:42047:1,2008-02-01T06:00:00Z,27.8966,-93.5973,1022.83,11111222 
TABS,ioos:station:wmo:42047:1,2008-02-01T06:30:00Z,27.8966,-93.5973,1023.15,11111222 
TABS,ioos:station:wmo:42047:1,2008-02-01T07:00:00Z,27.8966,-93.5973,1022.81,11111222 
TABS,ioos:station:wmo:42047:1,2008-02-01T07:30:00Z,27.8966,-93.5973,1023.32,11111222 
TABS,ioos:station:wmo:42047:1,2008-02-01T08:00:00Z,27.8966,-93.5973,1023.08,11111222 
TABS,ioos:station:wmo:42047:1,2008-02-01T08:30:00Z,27.8966,-93.5973,1023.33,11111222 
TABS,ioos:station:wmo:42047:1,2008-02-01T09:00:00Z,27.8966,-93.5973,1023.54,11111222 
TABS,ioos:station:wmo:42047:1,2008-02-01T09:30:00Z,27.8966,-93.5973,1023.67,11111222 
TABS,ioos:station:wmo:42047:1,2008-02-01T10:00:00Z,27.8966,-93.5973,1023.58,11111222 
TABS,ioos:station:wmo:42047:1,2008-02-01T10:30:00Z,27.8966,-93.5973,1023.91,11111222 
TABS,ioos:station:wmo:42047:1,2008-02-01T11:00:00Z,27.8966,-93.5973,1024.01,11111222 
TABS,ioos:station:wmo:42047:1,2008-02-01T11:30:00Z,27.8966,-93.5973,1024.19,11111222 
TABS,ioos:station:wmo:42047:1,2008-02-01T12:00:00Z,27.8966,-93.5973,1024.79,11111222 
TABS,ioos:station:wmo:42047:1,2008-02-01T12:30:00Z,27.8966,-93.5973,1025.16,11111222 
TABS,ioos:station:wmo:42047:1,2008-02-01T13:00:00Z,27.8966,-93.5973,1025.35,11111222 
TABS,ioos:station:wmo:42047:1,2008-02-01T13:30:00Z,27.8966,-93.5973,1025.31,11111222 
TABS,ioos:station:wmo:42047:1,2008-02-01T14:00:00Z,27.8966,-93.5973,1025.9,11111222 
TABS,ioos:station:wmo:42047:1,2008-02-01T14:30:00Z,27.8966,-93.5973,1026.41,11111222 
TABS,ioos:station:wmo:42047:1,2008-02-01T15:00:00Z,27.8966,-93.5973,1026.63,11111222 
TABS,ioos:station:wmo:42047:1,2008-02-01T15:30:00Z,27.8966,-93.5973,1027.0,11111222 
TABS,ioos:station:wmo:42047:1,2008-02-01T16:00:00Z,27.8966,-93.5973,1027.21,11111222 
TABS,ioos:station:wmo:42047:1,2008-02-01T16:30:00Z,27.8966,-93.5973,1027.01,11111222 
TABS,ioos:station:wmo:42047:1,2008-02-01T17:00:00Z,27.8966,-93.5973,1027.14,11111222 
TABS,ioos:station:wmo:42047:1,2008-02-01T17:30:00Z,27.8966,-93.5973,1026.69,11111222 
TABS,ioos:station:wmo:42047:1,2008-02-01T18:00:00Z,27.8966,-93.5973,1026.45,11111222 
TABS,ioos:station:wmo:42047:1,2008-02-01T18:30:00Z,27.8966,-93.5973,1026.01,11111222 
TABS,ioos:station:wmo:42047:1,2008-02-01T19:00:00Z,27.8966,-93.5973,1025.52,11111222 
TABS,ioos:station:wmo:42047:1,2008-02-01T19:30:00Z,27.8966,-93.5973,1024.85,11111222 
TABS,ioos:station:wmo:42047:1,2008-02-01T20:00:00Z,27.8966,-93.5973,1024.21,11111222 
TABS,ioos:station:wmo:42047:1,2008-02-01T20:30:00Z,27.8966,-93.5973,1023.58,11111222 
TABS,ioos:station:wmo:42047:1,2008-02-01T21:00:00Z,27.8966,-93.5973,1023.15,11111222 
TABS,ioos:station:wmo:42047:1,2008-02-01T21:30:00Z,27.8966,-93.5973,1022.79,11111222 
TABS,ioos:station:wmo:42047:1,2008-02-01T22:00:00Z,27.8966,-93.5973,1022.89,11111222 
TABS,ioos:station:wmo:42047:1,2008-02-01T22:30:00Z,27.8966,-93.5973,1023.06,11111222 
TABS,ioos:station:wmo:42047:1,2008-02-01T23:00:00Z,27.8966,-93.5973,1023.1,11111222 
TABS,ioos:station:wmo:42047:1,2008-02-01T23:30:00Z,27.8966,-93.5973,1022.83,11111222 
TABS,ioos:station:wmo:42047:1,2008-02-02T00:00:00Z,27.8966,-93.5973,1022.25,11111222 
TABS,ioos:station:wmo:42047:1,2008-02-02T00:30:00Z,27.8966,-93.5973,1022.27,11111222 
TABS,ioos:station:wmo:42047:1,2008-02-02T01:00:00Z,27.8966,-93.5973,1022.29,11111222 
TABS,ioos:station:wmo:42047:1,2008-02-02T01:30:00Z,27.8966,-93.5973,1022.66,11111222 
TABS,ioos:station:wmo:42047:1,2008-02-02T02:00:00Z,27.8966,-93.5973,1022.78,11111222 
TABS,ioos:station:wmo:42047:1,2008-02-02T02:30:00Z,27.8966,-93.5973,1022.82,11111222 
TABS,ioos:station:wmo:42047:1,2008-02-02T03:00:00Z,27.8966,-93.5973,1022.91,11111222 
TABS,ioos:station:wmo:42047:1,2008-02-02T03:30:00Z,27.8966,-93.5973,1022.18,11111222 
TABS,ioos:station:wmo:42047:1,2008-02-02T04:00:00Z,27.8966,-93.5973,1022.25,11111222 
TABS,ioos:station:wmo:42047:1,2008-02-02T04:30:00Z,27.8966,-93.5973,1021.96,11111222 
TABS,ioos:station:wmo:42047:1,2008-02-02T05:00:00Z,27.8966,-93.5973,1022.34,11111222 
TABS,ioos:station:wmo:42047:1,2008-02-02T05:30:00Z,27.8966,-93.5973,1022.04,11111222 
TABS,ioos:station:wmo:42047:1,2008-02-02T06:00:00Z,27.8966,-93.5973,1021.4,11111222 
TABS,ioos:station:wmo:42047:1,2008-02-02T06:30:00Z,27.8966,-93.5973,1021.56,11111222 
TABS,ioos:station:wmo:42047:1,2008-02-02T07:00:00Z,27.8966,-93.5973,1020.98,11111222 
TABS,ioos:station:wmo:42047:1,2008-02-02T07:30:00Z,27.8966,-93.5973,1020.22,11111222 
TABS,ioos:station:wmo:42047:1,2008-02-02T08:00:00Z,27.8966,-93.5973,1020.38,11111222 
TABS,ioos:station:wmo:42047:1,2008-02-02T08:30:00Z,27.8966,-93.5973,1020.03,11111222 
TABS,ioos:station:wmo:42047:1,2008-02-02T09:00:00Z,27.8966,-93.5973,1019.89,11111222 
TABS,ioos:station:wmo:42047:1,2008-02-02T09:30:00Z,27.8966,-93.5973,1019.93,11111222 
TABS,ioos:station:wmo:42047:1,2008-02-02T10:00:00Z,27.8966,-93.5973,1019.44,11111222 
TABS,ioos:station:wmo:42047:1,2008-02-02T10:30:00Z,27.8966,-93.5973,1019.68,11111222 
TABS,ioos:station:wmo:42047:1,2008-02-02T11:00:00Z,27.8966,-93.5973,1019.85,11111222 
TABS,ioos:station:wmo:42047:1,2008-02-02T11:30:00Z,27.8966,-93.5973,1020.37,11111222 
TABS,ioos:station:wmo:42047:1,2008-02-02T12:00:00Z,27.8966,-93.5973,1020.65,11111222 
TABS,ioos:station:wmo:42047:1,2008-02-02T12:30:00Z,27.8966,-93.5973,1020.79,11111222 
TABS,ioos:station:wmo:42047:1,2008-02-02T13:00:00Z,27.8966,-93.5973,1020.89,11111222 
TABS,ioos:station:wmo:42047:1,2008-02-02T13:30:00Z,27.8966,-93.5973,1021.06,11111222 
TABS,ioos:station:wmo:42047:1,2008-02-02T14:00:00Z,27.8966,-93.5973,1020.96,11111222 
TABS,ioos:station:wmo:42047:1,2008-02-02T14:30:00Z,27.8966,-93.5973,1021.54,11111222 
TABS,ioos:station:wmo:42047:1,2008-02-02T15:00:00Z,27.8966,-93.5973,1021.87,11111222 
TABS,ioos:station:wmo:42047:1,2008-02-02T15:30:00Z,27.8966,-93.5973,1022.21,11111222 
TABS,ioos:station:wmo:42047:1,2008-02-02T16:00:00Z,27.8966,-93.5973,1022.32,11111222 
TABS,ioos:station:wmo:42047:1,2008-02-02T16:30:00Z,27.8966,-93.5973,1022.63,11111222 
TABS,ioos:station:wmo:42047:1,2008-02-02T17:00:00Z,27.8966,-93.5973,1022.53,11111222 
TABS,ioos:station:wmo:42047:1,2008-02-02T17:30:00Z,27.8966,-93.5973,1022.3,11111222 
TABS,ioos:station:wmo:42047:1,2008-02-02T18:00:00Z,27.8966,-93.5973,1021.88,11111222 
TABS,ioos:station:wmo:42047:1,2008-02-02T18:30:00Z,27.8966,-93.5973,1021.11,11111222 
TABS,ioos:station:wmo:42047:1,2008-02-02T19:00:00Z,27.8966,-93.5973,1020.39,11111222 
TABS,ioos:station:wmo:42047:1,2008-02-02T19:30:00Z,27.8966,-93.5973,1019.71,11111222 
TABS,ioos:station:wmo:42047:1,2008-02-02T20:00:00Z,27.8966,-93.5973,1019.41,11111222 
TABS,ioos:station:wmo:42047:1,2008-02-02T20:30:00Z,27.8966,-93.5973,1019.03,11111222 
TABS,ioos:station:wmo:42047:1,2008-02-02T21:00:00Z,27.8966,-93.5973,1018.74,11111222 
TABS,ioos:station:wmo:42047:1,2008-02-02T21:30:00Z,27.8966,-93.5973,1018.56,11111222 
TABS,ioos:station:wmo:42047:1,2008-02-02T22:00:00Z,27.8966,-93.5973,1018.55,11111222 
TABS,ioos:station:wmo:42047:1,2008-02-02T22:30:00Z,27.8966,-93.5973,1018.28,11111222 
TABS,ioos:station:wmo:42047:1,2008-02-02T23:00:00Z,27.8966,-93.5973,1018.14,11111222 
TABS,ioos:station:wmo:42047:1,2008-02-02T23:30:00Z,27.8966,-93.5973,1018.2,11111222 
TABS,ioos:station:wmo:42047:1,2008-02-03T00:00:00Z,27.8966,-93.5973,1018.3,11111222 
TABS,ioos:station:wmo:42047:1,2008-02-03T00:30:00Z,27.8966,-93.5973,1018.36,11111222 
TABS,ioos:station:wmo:42047:1,2008-02-03T01:00:00Z,27.8966,-93.5973,1018.98,11111222 
TABS,ioos:station:wmo:42047:1,2008-02-03T01:30:00Z,27.8966,-93.5973,1018.77,11111222 
TABS,ioos:station:wmo:42047:1,2008-02-03T02:00:00Z,27.8966,-93.5973,1019.16,11111222 
TABS,ioos:station:wmo:42047:1,2008-02-03T02:30:00Z,27.8966,-93.5973,1019.23,11111222 
TABS,ioos:station:wmo:42047:1,2008-02-03T03:00:00Z,27.8966,-93.5973,1018.9,11111222 
TABS,ioos:station:wmo:42047:1,2008-02-03T03:30:00Z,27.8966,-93.5973,1018.88,11111222 
TABS,ioos:station:wmo:42047:1,2008-02-03T04:00:00Z,27.8966,-93.5973,1018.88,11111222 
TABS,ioos:station:wmo:42047:1,2008-02-03T04:30:00Z,27.8966,-93.5973,1018.97,11111222 
TABS,ioos:station:wmo:42047:1,2008-02-03T05:00:00Z,27.8966,-93.5973,1018.74,11111222 
TABS,ioos:station:wmo:42047:1,2008-02-03T05:30:00Z,27.8966,-93.5973,1018.66,11111222 
TABS,ioos:station:wmo:42047:1,2008-02-03T06:00:00Z,27.8966,-93.5973,1018.35,11111222 
TABS,ioos:station:wmo:42047:1,2008-02-03T06:30:00Z,27.8966,-93.5973,1018.42,11111222 
TABS,ioos:station:wmo:42047:1,2008-02-03T07:00:00Z,27.8966,-93.5973,1018.42,11111222 
TABS,ioos:station:wmo:42047:1,2008-02-03T07:30:00Z,27.8966,-93.5973,1018.08,11111222 
TABS,ioos:station:wmo:42047:1,2008-02-03T08:00:00Z,27.8966,-93.5973,1017.84,11111222 
TABS,ioos:station:wmo:42047:1,2008-02-03T08:30:00Z,27.8966,-93.5973,1017.47,11111222 
TABS,ioos:station:wmo:42047:1,2008-02-03T09:00:00Z,27.8966,-93.5973,1017.09,11111222 
TABS,ioos:station:wmo:42047:1,2008-02-03T09:30:00Z,27.8966,-93.5973,1016.79,11111222 
TABS,ioos:station:wmo:42047:1,2008-02-03T10:00:00Z,27.8966,-93.5973,1016.86,11111222 
TABS,ioos:station:wmo:42047:1,2008-02-03T10:30:00Z,27.8966,-93.5973,1017.2,11111222 
TABS,ioos:station:wmo:42047:1,2008-02-03T11:00:00Z,27.8966,-93.5973,1017.11,11111222 
TABS,ioos:station:wmo:42047:1,2008-02-03T11:30:00Z,27.8966,-93.5973,1017.62,11111222 
TABS,ioos:station:wmo:42047:1,2008-02-03T12:00:00Z,27.8966,-93.5973,1017.81,11111222 
TABS,ioos:station:wmo:42047:1,2008-02-03T12:30:00Z,27.8966,-93.5973,1017.72,11111222 
TABS,ioos:station:wmo:42047:1,2008-02-03T13:00:00Z,27.8966,-93.5973,1017.79,11111222 
TABS,ioos:station:wmo:42047:1,2008-02-03T13:30:00Z,27.8966,-93.5973,1018.06,11111222 
TABS,ioos:station:wmo:42047:1,2008-02-03T14:00:00Z,27.8966,-93.5973,1018.75,11111222 
TABS,ioos:station:wmo:42047:1,2008-02-03T14:30:00Z,27.8966,-93.5973,1018.96,11111222 
TABS,ioos:station:wmo:42047:1,2008-02-03T15:00:00Z,27.8966,-93.5973,1018.92,11111222 
TABS,ioos:station:wmo:42047:1,2008-02-03T15:30:00Z,27.8966,-93.5973,1019.19,11111222 
TABS,ioos:station:wmo:42047:1,2008-02-03T16:00:00Z,27.8966,-93.5973,1019.27,11111222 
TABS,ioos:station:wmo:42047:1,2008-02-03T16:30:00Z,27.8966,-93.5973,1019.22,11111222 
TABS,ioos:station:wmo:42047:1,2008-02-03T17:00:00Z,27.8966,-93.5973,1018.89,11111222 
TABS,ioos:station:wmo:42047:1,2008-02-03T17:30:00Z,27.8966,-93.5973,1018.73,11111222 
TABS,ioos:station:wmo:42047:1,2008-02-03T18:00:00Z,27.8966,-93.5973,1018.18,11111222 
TABS,ioos:station:wmo:42047:1,2008-02-03T18:30:00Z,27.8966,-93.5973,1017.62,11111222 
TABS,ioos:station:wmo:42047:1,2008-02-03T19:00:00Z,27.8966,-93.5973,1016.92,11111222 
TABS,ioos:station:wmo:42047:1,2008-02-03T19:30:00Z,27.8966,-93.5973,1016.63,11111222 
TABS,ioos:station:wmo:42047:1,2008-02-03T20:00:00Z,27.8966,-93.5973,1016.26,11111222 
TABS,ioos:station:wmo:42047:1,2008-02-03T20:30:00Z,27.8966,-93.5973,1015.84,11111222 
TABS,ioos:station:wmo:42047:1,2008-02-03T21:00:00Z,27.8966,-93.5973,1015.58,11111222 
TABS,ioos:station:wmo:42047:1,2008-02-03T21:30:00Z,27.8966,-93.5973,1014.99,11111222 
TABS,ioos:station:wmo:42047:1,2008-02-03T22:00:00Z,27.8966,-93.5973,1015.04,11111222 
TABS,ioos:station:wmo:42047:1,2008-02-03T22:30:00Z,27.8966,-93.5973,1014.95,11111222 
TABS,ioos:station:wmo:42047:1,2008-02-03T23:00:00Z,27.8966,-93.5973,1015.11,11111222 
TABS,ioos:station:wmo:42047:1,2008-02-03T23:30:00Z,27.8966,-93.5973,1015.13,11111222 
TABS,ioos:station:wmo:42047:1,2008-02-04T00:00:00Z,27.8966,-93.5973,1015.25,11111222 
TABS,ioos:station:wmo:42047:1,2008-02-04T00:30:00Z,27.8966,-93.5973,1015.15,11111222 
TABS,ioos:station:wmo:42047:1,2008-02-04T01:00:00Z,27.8966,-93.5973,1015.53,11111222 
TABS,ioos:station:wmo:42047:1,2008-02-04T01:30:00Z,27.8966,-93.5973,1015.3,11111222 
TABS,ioos:station:wmo:42047:1,2008-02-04T02:00:00Z,27.8966,-93.5973,1015.29,11111222 
TABS,ioos:station:wmo:42047:1,2008-02-04T02:30:00Z,27.8966,-93.5973,1015.13,11111222 
TABS,ioos:station:wmo:42047:1,2008-02-04T03:00:00Z,27.8966,-93.5973,1015.22,11111222 
TABS,ioos:station:wmo:42047:1,2008-02-04T03:30:00Z,27.8966,-93.5973,1015.28,11111222 
TABS,ioos:station:wmo:42047:1,2008-02-04T04:00:00Z,27.8966,-93.5973,1015.36,11111222 
TABS,ioos:station:wmo:42047:1,2008-02-04T04:30:00Z,27.8966,-93.5973,1015.63,11111222 
TABS,ioos:station:wmo:42047:1,2008-02-04T05:00:00Z,27.8966,-93.5973,1015.45,11111222 
TABS,ioos:station:wmo:42047:1,2008-02-04T05:30:00Z,27.8966,-93.5973,1015.39,11111222 
TABS,ioos:station:wmo:42047:1,2008-02-04T06:00:00Z,27.8966,-93.5973,1015.12,11111222 
TABS,ioos:station:wmo:42047:1,2008-02-04T06:30:00Z,27.8966,-93.5973,1014.86,11111222 
TABS,ioos:station:wmo:42047:1,2008-02-04T07:00:00Z,27.8966,-93.5973,1014.81,11111222 
TABS,ioos:station:wmo:42047:1,2008-02-04T07:30:00Z,27.8966,-93.5973,1014.82,11111222 
TABS,ioos:station:wmo:42047:1,2008-02-04T08:00:00Z,27.8966,-93.5973,1014.9,11111222 
TABS,ioos:station:wmo:42047:1,2008-02-04T08:30:00Z,27.8966,-93.5973,1014.92,11111222 
TABS,ioos:station:wmo:42047:1,2008-02-04T09:00:00Z,27.8966,-93.5973,1014.75,11111222 
TABS,ioos:station:wmo:42047:1,2008-02-04T09:30:00Z,27.8966,-93.5973,1014.87,11111222 
TABS,ioos:station:wmo:42047:1,2008-02-04T10:00:00Z,27.8966,-93.5973,1014.48,11111222 
TABS,ioos:station:wmo:42047:1,2008-02-04T10:30:00Z,27.8966,-93.5973,1014.18,11111222 
TABS,ioos:station:wmo:42047:1,2008-02-04T11:00:00Z,27.8966,-93.5973,1014.3,11111222 
TABS,ioos:station:wmo:42047:1,2008-02-04T11:30:00Z,27.8966,-93.5973,1014.33,11111222 
TABS,ioos:station:wmo:42047:1,2008-02-04T12:00:00Z,27.8966,-93.5973,1014.08,11111222 
TABS,ioos:station:wmo:42047:1,2008-02-04T12:30:00Z,27.8966,-93.5973,1013.9,11111222 
TABS,ioos:station:wmo:42047:1,2008-02-04T13:00:00Z,27.8966,-93.5973,1014.05,11111222 
TABS,ioos:station:wmo:42047:1,2008-02-04T13:30:00Z,27.8966,-93.5973,1014.29,11111222 
TABS,ioos:station:wmo:42047:1,2008-02-04T14:00:00Z,27.8966,-93.5973,1014.79,11111222 
TABS,ioos:station:wmo:42047:1,2008-02-04T14:30:00Z,27.8966,-93.5973,1014.91,11111222 
TABS,ioos:station:wmo:42047:1,2008-02-04T15:00:00Z,27.8966,-93.5973,1015.36,11111222 
TABS,ioos:station:wmo:42047:1,2008-02-04T15:30:00Z,27.8966,-93.5973,1015.7,11111222 
TABS,ioos:station:wmo:42047:1,2008-02-04T16:00:00Z,27.8966,-93.5973,1015.54,11111222 
TABS,ioos:station:wmo:42047:1,2008-02-04T16:30:00Z,27.8966,-93.5973,1015.49,11111222 
TABS,ioos:station:wmo:42047:1,2008-02-04T17:00:00Z,27.8966,-93.5973,1015.56,11111222 
TABS,ioos:station:wmo:42047:1,2008-02-04T17:30:00Z,27.8966,-93.5973,1015.0,11111222 
TABS,ioos:station:wmo:42047:1,2008-02-04T18:00:00Z,27.8966,-93.5973,1014.47,11111222 
TABS,ioos:station:wmo:42047:1,2008-02-04T18:30:00Z,27.8966,-93.5973,1013.72,11111222 
TABS,ioos:station:wmo:42047:1,2008-02-04T19:00:00Z,27.8966,-93.5973,1013.38,11111222 
TABS,ioos:station:wmo:42047:1,2008-02-04T19:30:00Z,27.8966,-93.5973,1012.53,11111222 
TABS,ioos:station:wmo:42047:1,2008-02-04T20:00:00Z,27.8966,-93.5973,1012.26,11111222 
TABS,ioos:station:wmo:42047:1,2008-02-04T20:30:00Z,27.8966,-93.5973,1011.84,11111222 
TABS,ioos:station:wmo:42047:1,2008-02-04T21:00:00Z,27.8966,-93.5973,1011.82,11111222 
TABS,ioos:station:wmo:42047:1,2008-02-04T21:30:00Z,27.8966,-93.5973,1011.71,11111222 
TABS,ioos:station:wmo:42047:1,2008-02-04T22:00:00Z,27.8966,-93.5973,1011.8,11111222 
TABS,ioos:station:wmo:42047:1,2008-02-04T22:30:00Z,27.8966,-93.5973,1011.81,11111222 
TABS,ioos:station:wmo:42047:1,2008-02-04T23:00:00Z,27.8966,-93.5973,1011.71,11111222 
TABS,ioos:station:wmo:42047:1,2008-02-04T23:30:00Z,27.8966,-93.5973,1012.21,11111222 
TABS,ioos:station:wmo:42047:1,2008-02-05T00:00:00Z,27.8966,-93.5973,1011.66,11111222 
TABS,ioos:station:wmo:42047:1,2008-02-05T00:30:00Z,27.8966,-93.5973,1011.87,11111222 
TABS,ioos:station:wmo:42047:1,2008-02-05T01:00:00Z,27.8966,-93.5973,1012.26,11111222 
TABS,ioos:station:wmo:42047:1,2008-02-05T01:30:00Z,27.8966,-93.5973,1012.78,11111222 
TABS,ioos:station:wmo:42047:1,2008-02-05T02:00:00Z,27.8966,-93.5973,1012.95,11111222 
TABS,ioos:station:wmo:42047:1,2008-02-05T02:30:00Z,27.8966,-93.5973,1012.91,11111222 
TABS,ioos:station:wmo:42047:1,2008-02-05T03:00:00Z,27.8966,-93.5973,1012.79,11111222 
TABS,ioos:station:wmo:42047:1,2008-02-05T03:30:00Z,27.8966,-93.5973,1012.69,11111222 
TABS,ioos:station:wmo:42047:1,2008-02-05T04:00:00Z,27.8966,-93.5973,1012.41,11111222 
TABS,ioos:station:wmo:42047:1,2008-02-05T04:30:00Z,27.8966,-93.5973,1012.56,11111222 
TABS,ioos:station:wmo:42047:1,2008-02-05T05:00:00Z,27.8966,-93.5973,1012.58,11111222 
TABS,ioos:station:wmo:42047:1,2008-02-05T05:30:00Z,27.8966,-93.5973,1012.15,11111222 
TABS,ioos:station:wmo:42047:1,2008-02-05T06:00:00Z,27.8966,-93.5973,1011.45,11111222 
TABS,ioos:station:wmo:42047:1,2008-02-05T06:30:00Z,27.8966,-93.5973,1011.16,11111222 
TABS,ioos:station:wmo:42047:1,2008-02-05T07:00:00Z,27.8966,-93.5973,1011.32,11111222 
TABS,ioos:station:wmo:42047:1,2008-02-05T07:30:00Z,27.8966,-93.5973,1011.28,11111222 
TABS,ioos:station:wmo:42047:1,2008-02-05T08:00:00Z,27.8966,-93.5973,1010.59,11111222 
TABS,ioos:station:wmo:42047:1,2008-02-05T08:30:00Z,27.8966,-93.5973,1010.94,11111222 
TABS,ioos:station:wmo:42047:1,2008-02-05T09:00:00Z,27.8966,-93.5973,1010.78,11111222 
TABS,ioos:station:wmo:42047:1,2008-02-05T09:30:00Z,27.8966,-93.5973,1010.34,11111222 
TABS,ioos:station:wmo:42047:1,2008-02-05T10:00:00Z,27.8966,-93.5973,1010.25,11111222 
TABS,ioos:station:wmo:42047:1,2008-02-05T10:30:00Z,27.8966,-93.5973,1009.91,11111222 
TABS,ioos:station:wmo:42047:1,2008-02-05T11:00:00Z,27.8966,-93.5973,1010.18,11111222 
TABS,ioos:station:wmo:42047:1,2008-02-05T11:30:00Z,27.8966,-93.5973,1010.04,11111222 
TABS,ioos:station:wmo:42047:1,2008-02-05T12:00:00Z,27.8966,-93.5973,1010.12,11111222 
TABS,ioos:station:wmo:42047:1,2008-02-05T12:30:00Z,27.8966,-93.5973,1010.0,11111222 
TABS,ioos:station:wmo:42047:1,2008-02-05T13:00:00Z,27.8966,-93.5973,1010.29,11111222 
TABS,ioos:station:wmo:42047:1,2008-02-05T13:30:00Z,27.8966,-93.5973,1010.65,11111222 
TABS,ioos:station:wmo:42047:1,2008-02-05T14:00:00Z,27.8966,-93.5973,1011.12,11111222 
TABS,ioos:station:wmo:42047:1,2008-02-05T14:30:00Z,27.8966,-93.5973,1011.15,11111222 
TABS,ioos:station:wmo:42047:1,2008-02-05T15:00:00Z,27.8966,-93.5973,1010.98,11111222 
TABS,ioos:station:wmo:42047:1,2008-02-05T15:30:00Z,27.8966,-93.5973,1011.05,11111222 
TABS,ioos:station:wmo:42047:1,2008-02-05T16:00:00Z,27.8966,-93.5973,1011.1,11111222 
TABS,ioos:station:wmo:42047:1,2008-02-05T16:30:00Z,27.8966,-93.5973,1010.91,11111222 
TABS,ioos:station:wmo:42047:1,2008-02-05T17:00:00Z,27.8966,-93.5973,1010.53,11111222 
TABS,ioos:station:wmo:42047:1,2008-02-05T17:30:00Z,27.8966,-93.5973,1009.96,11111222 
TABS,ioos:station:wmo:42047:1,2008-02-05T18:00:00Z,27.8966,-93.5973,1009.61,11111222 
TABS,ioos:station:wmo:42047:1,2008-02-05T18:30:00Z,27.8966,-93.5973,1008.93,11111222 
TABS,ioos:station:wmo:42047:1,2008-02-05T19:00:00Z,27.8966,-93.5973,1007.93,11111222 
TABS,ioos:station:wmo:42047:1,2008-02-05T19:30:00Z,27.8966,-93.5973,1007.52,11111222 
TABS,ioos:station:wmo:42047:1,2008-02-05T20:00:00Z,27.8966,-93.5973,1007.33,11111222 
TABS,ioos:station:wmo:42047:1,2008-02-05T20:30:00Z,27.8966,-93.5973,1007.23,11111222 
TABS,ioos:station:wmo:42047:1,2008-02-05T21:00:00Z,27.8966,-93.5973,1007.23,11111222 
TABS,ioos:station:wmo:42047:1,2008-02-05T21:30:00Z,27.8966,-93.5973,1007.18,11111222 
TABS,ioos:station:wmo:42047:1,2008-02-05T22:00:00Z,27.8966,-93.5973,1007.16,11111222 
TABS,ioos:station:wmo:42047:1,2008-02-05T22:30:00Z,27.8966,-93.5973,1007.44,11111222 
TABS,ioos:station:wmo:42047:1,2008-02-05T23:00:00Z,27.8966,-93.5973,1007.44,11111222 
TABS,ioos:station:wmo:42047:1,2008-02-05T23:30:00Z,27.8966,-93.5973,1007.21,11111222 
TABS,ioos:station:wmo:42047:1,2008-02-06T00:00:00Z,27.8966,-93.5973,1007.28,11111222 
TABS,ioos:station:wmo:42047:1,2008-02-06T00:30:00Z,27.8966,-93.5973,1007.36,11111222 
TABS,ioos:station:wmo:42047:1,2008-02-06T01:00:00Z,27.8966,-93.5973,1008.09,11111222 
TABS,ioos:station:wmo:42047:1,2008-02-06T01:30:00Z,27.8966,-93.5973,1007.89,11111222 
TABS,ioos:station:wmo:42047:1,2008-02-06T02:00:00Z,27.8966,-93.5973,1007.85,11111222 
TABS,ioos:station:wmo:42047:1,2008-02-06T02:30:00Z,27.8966,-93.5973,1008.05,11111222 
TABS,ioos:station:wmo:42047:1,2008-02-06T03:00:00Z,27.8966,-93.5973,1008.24,11111222 
TABS,ioos:station:wmo:42047:1,2008-02-06T03:30:00Z,27.8966,-93.5973,1008.47,11111222 
TABS,ioos:station:wmo:42047:1,2008-02-06T04:00:00Z,27.8966,-93.5973,1008.6,11111222 
TABS,ioos:station:wmo:42047:1,2008-02-06T04:30:00Z,27.8966,-93.5973,1009.43,11111222 
TABS,ioos:station:wmo:42047:1,2008-02-06T05:00:00Z,27.8966,-93.5973,1009.73,11111222 
TABS,ioos:station:wmo:42047:1,2008-02-06T05:30:00Z,27.8966,-93.5973,1010.82,11111222 
TABS,ioos:station:wmo:42047:1,2008-02-06T06:00:00Z,27.8966,-93.5973,1011.12,11111222 
TABS,ioos:station:wmo:42047:1,2008-02-06T06:30:00Z,27.8966,-93.5973,1011.17,11111222 
TABS,ioos:station:wmo:42047:1,2008-02-06T07:00:00Z,27.8966,-93.5973,1011.17,11111222 
TABS,ioos:station:wmo:42047:1,2008-02-06T07:30:00Z,27.8966,-93.5973,1010.96,11111222 
TABS,ioos:station:wmo:42047:1,2008-02-06T08:00:00Z,27.8966,-93.5973,1011.16,11111222 
TABS,ioos:station:wmo:42047:1,2008-02-06T08:30:00Z,27.8966,-93.5973,1012.36,11111222 
TABS,ioos:station:wmo:42047:1,2008-02-06T09:00:00Z,27.8966,-93.5973,1012.9,11111222 
TABS,ioos:station:wmo:42047:1,2008-02-06T09:30:00Z,27.8966,-93.5973,1013.04,11111222 
TABS,ioos:station:wmo:42047:1,2008-02-06T10:00:00Z,27.8966,-93.5973,1013.19,11111222 
TABS,ioos:station:wmo:42047:1,2008-02-06T10:30:00Z,27.8966,-93.5973,1013.29,11111222 
TABS,ioos:station:wmo:42047:1,2008-02-06T11:00:00Z,27.8966,-93.5973,1014.09,11111222 
TABS,ioos:station:wmo:42047:1,2008-02-06T11:30:00Z,27.8966,-93.5973,1014.98,11111222 
TABS,ioos:station:wmo:42047:1,2008-02-06T12:00:00Z,27.8966,-93.5973,1015.35,11111222 
TABS,ioos:station:wmo:42047:1,2008-02-06T12:30:00Z,27.8966,-93.5973,1015.58,11111222 
TABS,ioos:station:wmo:42047:1,2008-02-06T13:00:00Z,27.8966,-93.5973,1016.34,11111222 
TABS,ioos:station:wmo:42047:1,2008-02-06T13:30:00Z,27.8966,-93.5973,1017.03,11111222 
TABS,ioos:station:wmo:42047:1,2008-02-06T14:00:00Z,27.8966,-93.5973,1017.69,11111222 
TABS,ioos:station:wmo:42047:1,2008-02-06T14:30:00Z,27.8966,-93.5973,1018.28,11111222 
TABS,ioos:station:wmo:42047:1,2008-02-06T15:00:00Z,27.8966,-93.5973,1018.43,11111222 
TABS,ioos:station:wmo:42047:1,2008-02-06T15:30:00Z,27.8966,-93.5973,1019.37,11111222 
TABS,ioos:station:wmo:42047:1,2008-02-06T16:00:00Z,27.8966,-93.5973,1019.6,11111222 
TABS,ioos:station:wmo:42047:1,2008-02-06T16:30:00Z,27.8966,-93.5973,1019.68,11111222 
TABS,ioos:station:wmo:42047:1,2008-02-06T17:00:00Z,27.8966,-93.5973,1019.71,11111222 
TABS,ioos:station:wmo:42047:1,2008-02-06T17:30:00Z,27.8966,-93.5973,1020.12,11111222 
TABS,ioos:station:wmo:42047:1,2008-02-06T18:00:00Z,27.8966,-93.5973,1019.65,11111222 
TABS,ioos:station:wmo:42047:1,2008-02-06T18:30:00Z,27.8966,-93.5973,1019.21,11111222 